Seminole, TX

5:07 PM CST on February 24, 2017 (GMT -0600)
Seminole

Weather History for KGNC - March, 2013

Change the Weather History Date:

Saturday, March 23, 2013

  Actual Average (KHOB) Record (KHOB)
Temperature  
Mean Temperature 55 °F -  
Max Temperature 76 °F 67 °F 84 °F (1998)
Min Temperature 34 °F 41 °F 16 °F (1952)
Degree Days  
Heating Degree Days 10    
Growing Degree Days 5 (Base 50)    
Moisture  
Dew Point 24 °F    
Average Humidity 46    
Maximum Humidity 91    
Minimum Humidity 6    
Precipitation  
Precipitation 0.00 in - - ()
Sea Level Pressure  
Sea Level Pressure 29.78 in    
Wind  
Wind Speed 11 mph (NW)    
Max Wind Speed 39 mph    
Max Gust Speed 51 mph    
Visibility 8 miles    
Events      
Averages and records for this station are not official NWS values.
T = Trace of Precipitation, MM = Missing Value Source: NWS Daily Summary

Daily Weather History Graph

Daily Weather History Graph

Search for Another Location

Airport or City:

Trip Planner

Search our weather history database for the weather conditions in past years. The results will help you decide how hot, cold, wet, or windy it might be!

Date:

Astronomy

Mar. 23, 2013 Rise Set
Actual Time 7:50 AM CDT 8:04 PM CDT
Civil Twilight 7:25 AM CDT 8:29 PM CDT
Nautical Twilight 6:56 AM CDT 8:57 PM CDT
Astronomical Twilight 6:27 AM CDT 9:27 PM CDT
Moon 4:43 PM CDT (3/23) 5:16 AM CDT (3/23)
Length of Visible Light 13h 03m
Length of Day
12h 14m
Waxing Gibbous, 85% of the Moon is Illuminated
Mar 23
Waxing Gibbous
Mar 27
Full
Apr 2
Last Quarter
Apr 10
New
Apr 18
First Quarter

Hourly Weather History & Observations

Time (CDT) Temp. Windchill Dew Point Humidity Pressure Visibility Wind Dir Wind Speed Gust Speed Precip Events Conditions
12:15 AM 46.4 °F 41.9 °F 37.4 °F 71% 29.78 in 10.0 mi East 9.2 mph - N/A   Clear
12:35 AM 45.9 °F 41.7 °F 37.4 °F 72% 29.77 in 10.0 mi East 8.1 mph - N/A   Clear
12:55 AM 45.7 °F 42.7 °F 37.0 °F 72% 29.79 in 10.0 mi ENE 5.8 mph - N/A   Clear
1:15 AM 45.0 °F 41.2 °F 36.9 °F 73% 29.80 in 10.0 mi East 6.9 mph - N/A   Clear
1:35 AM 44.1 °F 40.1 °F 36.9 °F 76% 29.80 in 10.0 mi East 6.9 mph - N/A   Clear
1:55 AM 43.9 °F 40.5 °F 36.9 °F 76% 29.80 in 10.0 mi East 5.8 mph - N/A   Clear
2:15 AM 43.7 °F 41.1 °F 36.9 °F 77% 29.80 in 10.0 mi East 4.6 mph - N/A   Clear
2:35 AM 43.2 °F 38.4 °F 36.9 °F 78% 29.80 in 10.0 mi East 8.1 mph - N/A   Clear
2:55 AM 43.0 °F 38.8 °F 36.7 °F 78% 29.80 in 10.0 mi NE 6.9 mph - N/A   Clear
3:35 AM 42.1 °F - 36.7 °F 81% 29.79 in 10.0 mi Calm Calm - N/A   Clear
3:55 AM 41.4 °F 39.4 °F 36.1 °F 82% 29.78 in 10.0 mi East 3.5 mph - N/A   Clear
4:15 AM 40.1 °F - 35.6 °F 84% 29.77 in 10.0 mi Calm Calm - N/A   Clear
4:55 AM 39.7 °F - 35.4 °F 85% 29.76 in 10.0 mi Calm Calm - N/A   Clear
5:15 AM 39.2 °F - 35.4 °F 86% 29.76 in 10.0 mi Calm Calm - N/A   Clear
5:55 AM 38.5 °F 33.4 °F 34.7 °F 86% 29.76 in 10.0 mi NNW 6.9 mph - N/A   Clear
6:15 AM 38.5 °F - 34.9 °F 87% 29.76 in 10.0 mi Calm Calm - N/A   Clear
6:35 AM 37.0 °F - 33.8 °F 88% 29.76 in 10.0 mi Calm Calm - N/A   Clear
6:55 AM 35.6 °F - 32.9 °F 90% 29.76 in 10.0 mi Calm Calm - N/A   Clear
7:15 AM 35.2 °F - 32.4 °F 89% 29.77 in 10.0 mi Calm Calm - N/A   Clear
7:35 AM 34.7 °F - 32.2 °F 91% 29.78 in 10.0 mi Calm Calm - N/A   Clear
7:55 AM 35.6 °F - 32.9 °F 90% 29.78 in 10.0 mi Calm Calm - N/A   Clear
8:15 AM 35.1 °F - 32.5 °F 91% 29.78 in 10.0 mi Calm Calm - N/A   Clear
8:35 AM 36.5 °F - 33.1 °F 87% 29.79 in 10.0 mi Calm Calm - N/A   Clear
8:55 AM 38.7 °F - 34.0 °F 83% 29.79 in 10.0 mi Calm Calm - N/A   Clear
9:15 AM 41.9 °F - 36.5 °F 81% 29.80 in 10.0 mi Calm Calm - N/A   Clear
9:35 AM 43.9 °F - 37.0 °F 77% 29.80 in 10.0 mi Calm Calm - N/A   Clear
9:55 AM 46.2 °F 44.1 °F 37.8 °F 72% 29.80 in 10.0 mi SW 4.6 mph - N/A   Clear
10:15 AM 49.5 °F - 38.5 °F 66% 29.79 in 10.0 mi SSW 9.2 mph - N/A   Clear
10:35 AM 53.1 °F - 39.0 °F 59% 29.79 in 10.0 mi SW 11.5 mph - N/A   Clear
10:55 AM 57.4 °F - 38.7 °F 50% 29.78 in 10.0 mi SW 10.4 mph - N/A   Clear
11:15 AM 63.1 °F - 35.2 °F 35% 29.78 in 10.0 mi West 15.0 mph 19.6 mph N/A   Clear
11:35 AM 66.4 °F - 32.2 °F 28% 29.78 in 10.0 mi West 20.7 mph 26.5 mph N/A   Clear
11:55 AM 68.4 °F - 29.7 °F 24% 29.77 in 10.0 mi West 19.6 mph 31.1 mph N/A   Clear
12:15 PM 70.0 °F - 26.6 °F 20% 29.76 in 10.0 mi West 19.6 mph 28.8 mph N/A   Clear
12:35 PM 71.4 °F - 23.9 °F 17% 29.75 in 10.0 mi West 23.0 mph 28.8 mph N/A   Clear
12:55 PM 71.8 °F - 23.0 °F 16% 29.75 in 10.0 mi West 17.3 mph 25.3 mph N/A   Clear
1:15 PM 72.5 °F - 17.1 °F 12% 29.75 in 10.0 mi West 23.0 mph 32.2 mph N/A   Clear
1:35 PM 71.8 °F - 21.0 °F 15% 29.74 in 10.0 mi West 16.1 mph 27.6 mph N/A   Clear
1:55 PM 72.5 °F - 21.6 °F 15% 29.73 in 10.0 mi West 16.1 mph 27.6 mph N/A   Clear
2:15 PM 72.7 °F - 23.0 °F 16% 29.72 in 10.0 mi WSW 10.4 mph 21.9 mph N/A   Clear
2:35 PM 73.6 °F - 22.5 °F 15% 29.71 in 10.0 mi West 24.2 mph 32.2 mph N/A   Scattered Clouds
2:55 PM 74.5 °F - 21.6 °F 14% 29.69 in 10.0 mi West 23.0 mph 33.4 mph N/A   Clear
3:15 PM 74.3 °F - 21.7 °F 14% 29.69 in 10.0 mi West 19.6 mph 29.9 mph N/A   Clear
3:35 PM 76.1 °F - 14.2 °F 10% 29.67 in 10.0 mi West 24.2 mph 33.4 mph N/A   Clear
3:55 PM 76.3 °F - 16.5 °F 10% 29.65 in 10.0 mi West 20.7 mph 29.9 mph N/A   Clear
4:15 PM 76.8 °F - 16.0 °F 10% 29.65 in 10.0 mi West 15.0 mph 27.6 mph N/A   Clear
4:35 PM 76.5 °F - 14.2 °F 9% 29.65 in 10.0 mi West 24.2 mph 34.5 mph N/A   Clear
4:55 PM 76.5 °F - 8.8 °F 7% 29.65 in 7.0 mi West 23.0 mph 39.1 mph N/A   Clear
5:15 PM 76.6 °F - 5.5 °F 6% 29.64 in 5.0 mi West 23.0 mph 41.4 mph N/A   Haze
5:35 PM 75.2 °F - 5.9 °F 7% 29.65 in 10.0 mi WNW 16.1 mph 33.4 mph N/A   Clear
5:55 PM 75.2 °F - 11.3 °F 9% 29.65 in 10.0 mi West 21.9 mph 32.2 mph N/A   Clear
6:15 PM 75.0 °F - 10.8 °F 9% 29.65 in 10.0 mi West 26.5 mph 33.4 mph N/A   Clear
6:35 PM 74.3 °F - 9.5 °F 8% 29.66 in 10.0 mi WNW 21.9 mph 27.6 mph N/A   Clear
6:55 PM 73.0 °F - 6.8 °F 8% 29.66 in 10.0 mi West 19.6 mph 27.6 mph N/A   Clear
7:15 PM 72.5 °F - 5.0 °F 7% 29.69 in 7.0 mi NW 29.9 mph 39.1 mph N/A   Scattered Clouds
7:35 PM 65.3 °F - 3.0 °F 8% 29.73 in 0.8 mi NNW 36.8 mph 47.2 mph N/A   Haze
7:55 PM 61.0 °F - 3.2 °F 10% 29.76 in 1.2 mi NNW 36.8 mph 44.9 mph N/A   Haze
8:15 PM 58.3 °F - 3.0 °F 11% 29.79 in 2.5 mi North 29.9 mph 41.4 mph N/A   Haze
8:35 PM 55.9 °F - 0.5 °F 11% 29.81 in 2.0 mi North 28.8 mph 46.0 mph N/A   Haze
8:55 PM 53.4 °F - -4.7 °F 9% 29.84 in 1.8 mi North 39.1 mph 49.5 mph N/A   Haze
9:15 PM 52.0 °F - -7.6 °F 8% 29.86 in 2.0 mi NNW 32.2 mph 47.2 mph N/A   Haze
9:35 PM 49.6 °F - 11.8 °F 22% 29.90 in 1.5 mi North 29.9 mph 50.6 mph N/A   Haze
9:55 PM 45.3 °F 37.6 °F 21.6 °F 39% 29.94 in 2.5 mi North 19.6 mph 34.5 mph N/A   Haze
10:15 PM 42.6 °F 34.3 °F 24.6 °F 49% 29.98 in 3.0 mi North 18.4 mph 29.9 mph N/A   Haze
10:35 PM 40.6 °F 31.4 °F 24.6 °F 53% 30.00 in 3.0 mi NNE 19.6 mph 33.4 mph N/A   Haze
10:55 PM 39.2 °F 28.5 °F 23.7 °F 54% 30.01 in 4.0 mi North 24.2 mph 38.0 mph N/A   Haze
11:15 PM 37.6 °F 26.3 °F 22.8 °F 55% 30.05 in 4.0 mi North 24.2 mph 34.5 mph N/A   Haze
11:35 PM 35.8 °F 24.5 °F 21.7 °F 57% 30.07 in 5.0 mi North 21.9 mph 29.9 mph N/A   Haze
11:55 PM 34.5 °F 22.5 °F 20.3 °F 56% 30.07 in 5.0 mi North 23.0 mph 34.5 mph N/A   Haze